Location: Newark
(48.1333°N, 17.1000°E)
Time: 18:19:53
(UTC+00:00)

N. Korean satellite - Pass Details

Date: 30 January 2020
Orbit: 456 x 506 km, 97.2° (Epoch: 17 February)

Event Time Altitude Azimuth Distance (km) Brightness Sun altitude
Rises 05:07:12 0° 8° (N) 2,549 10.2 -12.8°
Reaches altitude 10° 05:09:17 10° 3° (N) 1,673 9.2 -12.4°
Maximum altitude 05:12:48 51° 287° (WNW) 620 6.7 -11.9°
Drops below altitude 10° 05:16:19 10° 211° (SSW) 1,686 9.1 -11.3°
Sets 05:18:26 0° 206° (SSW) 2,571 10.1 -10.9°
